owner,sensor,date,latitude,longitude,vertical_datum,wind_speed,wind_to_direction,wind_speed_of_gust,qcFlag 
NDBC,ioos:station:NOAA.NDBC:SRST2:1,2017-09-01T00:00:00Z,29.6830,-94.0330,9.1,3.6,250.0,4.1,'1111122,1111122,1111122' 
NDBC,ioos:station:NOAA.NDBC:SRST2:1,2017-09-01T01:00:00Z,29.6830,-94.0330,9.1,6.2,230.0,7.2,'1111122,1111122,1111122' 
NDBC,ioos:station:NOAA.NDBC:SRST2:1,2017-09-01T02:00:00Z,29.6830,-94.0330,9.1,6.2,240.0,7.2,'1111122,1111122,1111122' 
NDBC,ioos:station:NOAA.NDBC:SRST2:1,2017-09-01T03:00:00Z,29.6830,-94.0330,9.1,5.7,240.0,6.2,'1111122,1111122,1111122' 
NDBC,ioos:station:NOAA.NDBC:SRST2:1,2017-09-01T04:00:00Z,29.6830,-94.0330,9.1,4.6,250.0,5.7,'1111122,1111122,1111122' 
NDBC,ioos:station:NOAA.NDBC:SRST2:1,2017-09-01T05:00:00Z,29.6830,-94.0330,9.1,4.1,250.0,5.1,'1111122,1111122,1111122' 
NDBC,ioos:station:NOAA.NDBC:SRST2:1,2017-09-01T06:00:00Z,29.6830,-94.0330,9.1,5.1,250.0,5.7,'1111122,1111122,1111122' 
NDBC,ioos:station:NOAA.NDBC:SRST2:1,2017-09-01T07:00:00Z,29.6830,-94.0330,9.1,3.6,350.0,4.6,'1111122,1111122,1111122' 
NDBC,ioos:station:NOAA.NDBC:SRST2:1,2017-09-01T08:00:00Z,29.6830,-94.0330,9.1,2.6,320.0,3.1,'1111122,1111122,1111122' 
NDBC,ioos:station:NOAA.NDBC:SRST2:1,2017-09-01T09:00:00Z,29.6830,-94.0330,9.1,2.6,320.0,3.1,'1111122,1111122,1111122' 
NDBC,ioos:station:NOAA.NDBC:SRST2:1,2017-09-01T10:00:00Z,29.6830,-94.0330,9.1,1.5,350.0,1.5,'1111122,1111122,1111122' 
NDBC,ioos:station:NOAA.NDBC:SRST2:1,2017-09-01T11:00:00Z,29.6830,-94.0330,9.1,2.1,360.0,3.1,'1111122,1111122,1111122' 
NDBC,ioos:station:NOAA.NDBC:SRST2:1,2017-09-01T12:00:00Z,29.6830,-94.0330,9.1,2.1,40.0,2.6,'1111122,1111122,1111122' 
NDBC,ioos:station:NOAA.NDBC:SRST2:1,2017-09-01T13:00:00Z,29.6830,-94.0330,9.1,2.6,40.0,3.1,'1111122,1111122,1111122' 
NDBC,ioos:station:NOAA.NDBC:SRST2:1,2017-09-01T14:00:00Z,29.6830,-94.0330,9.1,2.6,30.0,3.1,'1111122,1111122,1111122' 
NDBC,ioos:station:NOAA.NDBC:SRST2:1,2017-09-01T15:00:00Z,29.6830,-94.0330,9.1,3.1,30.0,3.1,'1111122,1111122,1111122' 
NDBC,ioos:station:NOAA.NDBC:SRST2:1,2017-09-01T16:00:00Z,29.6830,-94.0330,9.1,3.1,30.0,3.6,'1111122,1111122,1111122' 
NDBC,ioos:station:NOAA.NDBC:SRST2:1,2017-09-01T17:00:00Z,29.6830,-94.0330,9.1,2.6,20.0,2.6,'1111122,1111122,1111122' 
NDBC,ioos:station:NOAA.NDBC:SRST2:1,2017-09-01T18:00:00Z,29.6830,-94.0330,9.1,1.5,40.0,1.5,'1111122,1111122,1111122' 
NDBC,ioos:station:NOAA.NDBC:SRST2:1,2017-09-01T19:00:00Z,29.6830,-94.0330,9.1,0.5,340.0,1.0,'1111122,1111122,1111122' 
NDBC,ioos:station:NOAA.NDBC:SRST2:1,2017-09-01T20:00:00Z,29.6830,-94.0330,9.1,3.1,170.0,3.6,'1111122,1111122,1111122' 
NDBC,ioos:station:NOAA.NDBC:SRST2:1,2017-09-01T21:00:00Z,29.6830,-94.0330,9.1,1.5,180.0,2.1,'1111122,1111122,1111122' 
NDBC,ioos:station:NOAA.NDBC:SRST2:1,2017-09-01T22:00:00Z,29.6830,-94.0330,9.1,2.1,170.0,3.1,'1111122,1111122,1111122' 
NDBC,ioos:station:NOAA.NDBC:SRST2:1,2017-09-02T00:00:00Z,29.6830,-94.0330,9.1,2.1,180.0,2.1,'1111122,1111122,1111122' 
NDBC,ioos:station:NOAA.NDBC:SRST2:1,2017-09-02T01:00:00Z,29.6830,-94.0330,9.1,2.1,190.0,2.6,'1111122,1111122,1111122' 
NDBC,ioos:station:NOAA.NDBC:SRST2:1,2017-09-02T02:00:00Z,29.6830,-94.0330,9.1,2.6,180.0,2.6,'1111122,1111122,1111122' 
NDBC,ioos:station:NOAA.NDBC:SRST2:1,2017-09-02T03:00:00Z,29.6830,-94.0330,9.1,2.6,170.0,3.1,'1111122,1111122,1111122' 
NDBC,ioos:station:NOAA.NDBC:SRST2:1,2017-09-02T04:00:00Z,29.6830,-94.0330,9.1,1.5,190.0,2.1,'1111122,1111122,1111122' 
NDBC,ioos:station:NOAA.NDBC:SRST2:1,2017-09-02T05:00:00Z,29.6830,-94.0330,9.1,2.6,260.0,3.1,'1111122,1111122,1111122' 
NDBC,ioos:station:NOAA.NDBC:SRST2:1,2017-09-02T06:00:00Z,29.6830,-94.0330,9.1,2.1,280.0,2.6,'1111122,1111122,1111122' 
NDBC,ioos:station:NOAA.NDBC:SRST2:1,2017-09-02T07:00:00Z,29.6830,-94.0330,9.1,1.5,310.0,2.1,'1111122,1111122,1111122' 
NDBC,ioos:station:NOAA.NDBC:SRST2:1,2017-09-02T08:00:00Z,29.6830,-94.0330,9.1,1.5,340.0,1.5,'1111122,1111122,1111122' 
NDBC,ioos:station:NOAA.NDBC:SRST2:1,2017-09-02T09:00:00Z,29.6830,-94.0330,9.1,2.6,360.0,2.6,'1111122,1111122,1111122' 
NDBC,ioos:station:NOAA.NDBC:SRST2:1,2017-09-02T10:00:00Z,29.6830,-94.0330,9.1,2.1,350.0,2.1,'1111122,1111122,1111122' 
NDBC,ioos:station:NOAA.NDBC:SRST2:1,2017-09-02T11:00:00Z,29.6830,-94.0330,9.1,2.1,350.0,2.1,'1111122,1111122,1111122' 
NDBC,ioos:station:NOAA.NDBC:SRST2:1,2017-09-02T12:00:00Z,29.6830,-94.0330,9.1,2.1,360.0,2.1,'1111122,1111122,1111122' 
NDBC,ioos:station:NOAA.NDBC:SRST2:1,2017-09-02T13:00:00Z,29.6830,-94.0330,9.1,3.6,360.0,3.6,'1111122,1111122,1111122' 
NDBC,ioos:station:NOAA.NDBC:SRST2:1,2017-09-02T14:00:00Z,29.6830,-94.0330,9.1,3.1,340.0,3.6,'1111122,1111122,1111122' 
NDBC,ioos:station:NOAA.NDBC:SRST2:1,2017-09-02T15:00:00Z,29.6830,-94.0330,9.1,2.1,360.0,2.1,'1111122,1111122,1111122' 
NDBC,ioos:station:NOAA.NDBC:SRST2:1,2017-09-02T16:00:00Z,29.6830,-94.0330,9.1,0.5,30.0,1.0,'1111122,1111122,1111122' 
NDBC,ioos:station:NOAA.NDBC:SRST2:1,2017-09-02T17:00:00Z,29.6830,-94.0330,9.1,0.0,-9999.0,0.5,'1114422,1111122,1111122' 
NDBC,ioos:station:NOAA.NDBC:SRST2:1,2017-09-02T18:00:00Z,29.6830,-94.0330,9.1,2.6,170.0,3.1,'1111122,1111122,1111122' 
NDBC,ioos:station:NOAA.NDBC:SRST2:1,2017-09-02T19:00:00Z,29.6830,-94.0330,9.1,2.6,190.0,3.6,'1111122,1111122,1111122' 
NDBC,ioos:station:NOAA.NDBC:SRST2:1,2017-09-02T20:00:00Z,29.6830,-94.0330,9.1,3.1,190.0,4.1,'1111122,1111122,1111122' 
NDBC,ioos:station:NOAA.NDBC:SRST2:1,2017-09-02T21:00:00Z,29.6830,-94.0330,9.1,2.1,200.0,2.6,'1111122,1111122,1111122' 
NDBC,ioos:station:NOAA.NDBC:SRST2:1,2017-09-02T22:00:00Z,29.6830,-94.0330,9.1,1.0,210.0,1.5,'1111122,1111122,1111122' 
NDBC,ioos:station:NOAA.NDBC:SRST2:1,2017-09-02T23:00:00Z,29.6830,-94.0330,9.1,2.1,200.0,2.6,'1111122,1111122,1111122' 
NDBC,ioos:station:NOAA.NDBC:SRST2:1,2017-09-03T00:00:00Z,29.6830,-94.0330,9.1,1.5,210.0,2.1,'1111122,1111122,1111122' 
NDBC,ioos:station:NOAA.NDBC:SRST2:1,2017-09-03T01:00:00Z,29.6830,-94.0330,9.1,2.1,280.0,2.6,'1111122,1111122,1111122' 
NDBC,ioos:station:NOAA.NDBC:SRST2:1,2017-09-03T02:00:00Z,29.6830,-94.0330,9.1,1.0,190.0,1.0,'1111122,1111122,1111122' 
NDBC,ioos:station:NOAA.NDBC:SRST2:1,2017-09-03T03:00:00Z,29.6830,-94.0330,9.1,1.0,310.0,1.5,'1111122,1111122,1111122' 
NDBC,ioos:station:NOAA.NDBC:SRST2:1,2017-09-03T04:00:00Z,29.6830,-94.0330,9.1,1.0,290.0,1.0,'1111122,1111122,1111122' 
NDBC,ioos:station:NOAA.NDBC:SRST2:1,2017-09-03T05:00:00Z,29.6830,-94.0330,9.1,0.0,-9999.0,0.5,'1114422,1111122,1111122' 
NDBC,ioos:station:NOAA.NDBC:SRST2:1,2017-09-03T06:00:00Z,29.6830,-94.0330,9.1,0.5,180.0,0.5,'1111122,1111122,1111122' 
NDBC,ioos:station:NOAA.NDBC:SRST2:1,2017-09-03T07:00:00Z,29.6830,-94.0330,9.1,2.1,150.0,2.6,'1111122,1111122,1111122' 
NDBC,ioos:station:NOAA.NDBC:SRST2:1,2017-09-03T08:00:00Z,29.6830,-94.0330,9.1,1.5,150.0,2.1,'1111122,1111122,1111122' 
NDBC,ioos:station:NOAA.NDBC:SRST2:1,2017-09-03T09:00:00Z,29.6830,-94.0330,9.1,1.5,140.0,1.5,'1111122,1111122,1111122' 
NDBC,ioos:station:NOAA.NDBC:SRST2:1,2017-09-03T10:00:00Z,29.6830,-94.0330,9.1,0.5,110.0,0.5,'1111122,1111122,1111122' 
NDBC,ioos:station:NOAA.NDBC:SRST2:1,2017-09-03T11:00:00Z,29.6830,-94.0330,9.1,0.5,70.0,1.0,'1111122,1111122,1111122' 
NDBC,ioos:station:NOAA.NDBC:SRST2:1,2017-09-03T12:00:00Z,29.6830,-94.0330,9.1,0.0,-9999.0,0.5,'1114422,1111122,1111122' 
NDBC,ioos:station:NOAA.NDBC:SRST2:1,2017-09-03T13:00:00Z,29.6830,-94.0330,9.1,2.1,10.0,2.6,'1111122,1111122,1111122' 
NDBC,ioos:station:NOAA.NDBC:SRST2:1,2017-09-03T14:00:00Z,29.6830,-94.0330,9.1,2.1,40.0,2.6,'1111122,1111122,1111122' 
NDBC,ioos:station:NOAA.NDBC:SRST2:1,2017-09-03T15:00:00Z,29.6830,-94.0330,9.1,2.6,10.0,3.1,'1111122,1111122,1111122' 
NDBC,ioos:station:NOAA.NDBC:SRST2:1,2017-09-03T16:00:00Z,29.6830,-94.0330,9.1,2.1,30.0,2.6,'1111122,1111122,1111122' 
NDBC,ioos:station:NOAA.NDBC:SRST2:1,2017-09-03T17:00:00Z,29.6830,-94.0330,9.1,1.0,40.0,1.5,'1111122,1111122,1111122' 
NDBC,ioos:station:NOAA.NDBC:SRST2:1,2017-09-03T18:00:00Z,29.6830,-94.0330,9.1,1.5,30.0,2.1,'1111122,1111122,1111122' 
NDBC,ioos:station:NOAA.NDBC:SRST2:1,2017-09-03T19:00:00Z,29.6830,-94.0330,9.1,2.6,140.0,3.1,'1111122,1111122,1111122' 
NDBC,ioos:station:NOAA.NDBC:SRST2:1,2017-09-03T20:00:00Z,29.6830,-94.0330,9.1,3.1,140.0,4.1,'1111122,1111122,1111122' 
NDBC,ioos:station:NOAA.NDBC:SRST2:1,2017-09-03T21:00:00Z,29.6830,-94.0330,9.1,2.6,150.0,3.1,'1111122,1111122,1111122' 
NDBC,ioos:station:NOAA.NDBC:SRST2:1,2017-09-03T22:00:00Z,29.6830,-94.0330,9.1,2.6,140.0,3.1,'1111122,1111122,1111122' 
NDBC,ioos:station:NOAA.NDBC:SRST2:1,2017-09-03T23:00:00Z,29.6830,-94.0330,9.1,3.1,130.0,3.6,'1111122,1111122,1111122' 
NDBC,ioos:station:NOAA.NDBC:SRST2:1,2017-09-04T00:00:00Z,29.6830,-94.0330,9.1,4.1,110.0,4.6,'1111122,1111122,1111122' 
NDBC,ioos:station:NOAA.NDBC:SRST2:1,2017-09-04T01:00:00Z,29.6830,-94.0330,9.1,3.1,130.0,3.6,'1111122,1111122,1111122' 
NDBC,ioos:station:NOAA.NDBC:SRST2:1,2017-09-04T02:00:00Z,29.6830,-94.0330,9.1,2.1,120.0,2.1,'1111122,1111122,1111122' 
NDBC,ioos:station:NOAA.NDBC:SRST2:1,2017-09-04T03:00:00Z,29.6830,-94.0330,9.1,1.5,120.0,1.5,'1111122,1111122,1111122' 
NDBC,ioos:station:NOAA.NDBC:SRST2:1,2017-09-04T04:00:00Z,29.6830,-94.0330,9.1,1.5,120.0,2.1,'1111122,1111122,1111122' 
NDBC,ioos:station:NOAA.NDBC:SRST2:1,2017-09-04T05:00:00Z,29.6830,-94.0330,9.1,1.5,130.0,1.5,'1111122,1111122,1111122' 
NDBC,ioos:station:NOAA.NDBC:SRST2:1,2017-09-04T06:00:00Z,29.6830,-94.0330,9.1,0.5,180.0,1.0,'1111122,1111122,1111122' 
NDBC,ioos:station:NOAA.NDBC:SRST2:1,2017-09-04T08:00:00Z,29.6830,-94.0330,9.1,0.0,-9999.0,0.5,'1114422,1111122,1111122' 
NDBC,ioos:station:NOAA.NDBC:SRST2:1,2017-09-04T10:00:00Z,29.6830,-94.0330,9.1,0.5,110.0,0.5,'1111122,1111122,1111122' 
NDBC,ioos:station:NOAA.NDBC:SRST2:1,2017-09-04T11:00:00Z,29.6830,-94.0330,9.1,1.0,90.0,1.0,'1111122,1111122,1111122' 
NDBC,ioos:station:NOAA.NDBC:SRST2:1,2017-09-04T12:00:00Z,29.6830,-94.0330,9.1,1.0,80.0,1.0,'1111122,1111122,1111122' 
NDBC,ioos:station:NOAA.NDBC:SRST2:1,2017-09-04T13:00:00Z,29.6830,-94.0330,9.1,1.5,90.0,1.5,'1111122,1111122,1111122' 
NDBC,ioos:station:NOAA.NDBC:SRST2:1,2017-09-04T14:00:00Z,29.6830,-94.0330,9.1,1.5,80.0,2.1,'1111122,1111122,1111122' 
NDBC,ioos:station:NOAA.NDBC:SRST2:1,2017-09-04T15:00:00Z,29.6830,-94.0330,9.1,2.1,140.0,2.6,'1111122,1111122,1111122' 
NDBC,ioos:station:NOAA.NDBC:SRST2:1,2017-09-04T16:00:00Z,29.6830,-94.0330,9.1,3.1,140.0,3.6,'1111122,1111122,1111122' 
NDBC,ioos:station:NOAA.NDBC:SRST2:1,2017-09-04T17:00:00Z,29.6830,-94.0330,9.1,2.6,140.0,3.1,'1111122,1111122,1111122' 
NDBC,ioos:station:NOAA.NDBC:SRST2:1,2017-09-04T18:00:00Z,29.6830,-94.0330,9.1,3.1,150.0,4.1,'1111122,1111122,1111122' 
NDBC,ioos:station:NOAA.NDBC:SRST2:1,2017-09-04T19:00:00Z,29.6830,-94.0330,9.1,2.6,170.0,3.6,'1111122,1111122,1111122' 
NDBC,ioos:station:NOAA.NDBC:SRST2:1,2017-09-04T20:00:00Z,29.6830,-94.0330,9.1,3.1,150.0,3.6,'1111122,1111122,1111122' 
NDBC,ioos:station:NOAA.NDBC:SRST2:1,2017-09-04T21:00:00Z,29.6830,-94.0330,9.1,2.1,160.0,3.1,'1111122,1111122,1111122' 
NDBC,ioos:station:NOAA.NDBC:SRST2:1,2017-09-04T22:00:00Z,29.6830,-94.0330,9.1,3.1,170.0,3.6,'1111122,1111122,1111122' 
NDBC,ioos:station:NOAA.NDBC:SRST2:1,2017-09-05T00:00:00Z,29.6830,-94.0330,9.1,3.1,160.0,3.6,'1111122,1111122,1111122' 
NDBC,ioos:station:NOAA.NDBC:SRST2:1,2017-09-05T01:00:00Z,29.6830,-94.0330,9.1,2.6,160.0,3.1,'1111122,1111122,1111122' 
NDBC,ioos:station:NOAA.NDBC:SRST2:1,2017-09-05T02:00:00Z,29.6830,-94.0330,9.1,2.6,160.0,2.6,'1111122,1111122,1111122' 
NDBC,ioos:station:NOAA.NDBC:SRST2:1,2017-09-05T03:00:00Z,29.6830,-94.0330,9.1,3.1,150.0,3.6,'1111122,1111122,1111122' 
NDBC,ioos:station:NOAA.NDBC:SRST2:1,2017-09-05T04:00:00Z,29.6830,-94.0330,9.1,3.6,160.0,4.1,'1111122,1111122,1111122' 
NDBC,ioos:station:NOAA.NDBC:SRST2:1,2017-09-05T05:00:00Z,29.6830,-94.0330,9.1,3.6,160.0,4.1,'1111122,1111122,1111122' 
NDBC,ioos:station:NOAA.NDBC:SRST2:1,2017-09-05T06:00:00Z,29.6830,-94.0330,9.1,3.6,160.0,4.1,'1111122,1111122,1111122' 
NDBC,ioos:station:NOAA.NDBC:SRST2:1,2017-09-05T07:00:00Z,29.6830,-94.0330,9.1,3.6,180.0,4.6,'1111122,1111122,1111122' 
NDBC,ioos:station:NOAA.NDBC:SRST2:1,2017-09-05T08:00:00Z,29.6830,-94.0330,9.1,2.6,190.0,3.1,'1111122,1111122,1111122' 
NDBC,ioos:station:NOAA.NDBC:SRST2:1,2017-09-05T09:00:00Z,29.6830,-94.0330,9.1,1.5,190.0,2.1,'1111122,1111122,1111122' 
NDBC,ioos:station:NOAA.NDBC:SRST2:1,2017-09-05T10:00:00Z,29.6830,-94.0330,9.1,1.0,230.0,1.0,'1111122,1111122,1111122' 
NDBC,ioos:station:NOAA.NDBC:SRST2:1,2017-09-05T12:00:00Z,29.6830,-94.0330,9.1,1.0,360.0,1.5,'1111122,1111122,1111122' 
NDBC,ioos:station:NOAA.NDBC:SRST2:1,2017-09-05T13:00:00Z,29.6830,-94.0330,9.1,2.6,40.0,3.1,'1111122,1111122,1111122' 
NDBC,ioos:station:NOAA.NDBC:SRST2:1,2017-09-05T14:00:00Z,29.6830,-94.0330,9.1,3.1,40.0,3.6,'1111122,1111122,1111122' 
NDBC,ioos:station:NOAA.NDBC:SRST2:1,2017-09-05T15:00:00Z,29.6830,-94.0330,9.1,2.6,40.0,3.6,'1111122,1111122,1111122' 
NDBC,ioos:station:NOAA.NDBC:SRST2:1,2017-09-05T16:00:00Z,29.6830,-94.0330,9.1,2.6,40.0,3.1,'1111122,1111122,1111122' 
NDBC,ioos:station:NOAA.NDBC:SRST2:1,2017-09-05T17:00:00Z,29.6830,-94.0330,9.1,1.5,30.0,2.1,'1111122,1111122,1111122' 
NDBC,ioos:station:NOAA.NDBC:SRST2:1,2017-09-05T18:00:00Z,29.6830,-94.0330,9.1,2.1,120.0,3.6,'1111122,1111122,1111122' 
NDBC,ioos:station:NOAA.NDBC:SRST2:1,2017-09-05T19:00:00Z,29.6830,-94.0330,9.1,3.1,150.0,4.1,'1111122,1111122,1111122' 
NDBC,ioos:station:NOAA.NDBC:SRST2:1,2017-09-05T20:00:00Z,29.6830,-94.0330,9.1,3.1,150.0,4.1,'1111122,1111122,1111122' 
NDBC,ioos:station:NOAA.NDBC:SRST2:1,2017-09-05T21:00:00Z,29.6830,-94.0330,9.1,3.1,170.0,4.1,'1111122,1111122,1111122' 
NDBC,ioos:station:NOAA.NDBC:SRST2:1,2017-09-05T22:00:00Z,29.6830,-94.0330,9.1,3.6,180.0,4.6,'1111122,1111122,1111122' 
NDBC,ioos:station:NOAA.NDBC:SRST2:1,2017-09-05T23:00:00Z,29.6830,-94.0330,9.1,3.6,170.0,4.6,'1111122,1111122,1111122' 
NDBC,ioos:station:NOAA.NDBC:SRST2:1,2017-09-06T00:00:00Z,29.6830,-94.0330,9.1,2.6,180.0,3.6,'1111122,1111122,1111122' 
NDBC,ioos:station:NOAA.NDBC:SRST2:1,2017-09-06T01:00:00Z,29.6830,-94.0330,9.1,3.1,200.0,4.1,'1111122,1111122,1111122' 
NDBC,ioos:station:NOAA.NDBC:SRST2:1,2017-09-07T15:00:00Z,29.6830,-94.0330,9.1,5.7,50.0,6.2,'1111122,1111122,1111122' 
NDBC,ioos:station:NOAA.NDBC:SRST2:1,2017-09-07T16:00:00Z,29.6830,-94.0330,9.1,5.1,30.0,6.2,'1111122,1111122,1111122' 
NDBC,ioos:station:NOAA.NDBC:SRST2:1,2017-09-07T17:00:00Z,29.6830,-94.0330,9.1,5.1,40.0,6.2,'1111122,1111122,1111122' 
NDBC,ioos:station:NOAA.NDBC:SRST2:1,2017-09-07T18:00:00Z,29.6830,-94.0330,9.1,5.1,40.0,6.2,'1111122,1111122,1111122' 
NDBC,ioos:station:NOAA.NDBC:SRST2:1,2017-09-07T19:00:00Z,29.6830,-94.0330,9.1,5.1,30.0,6.7,'1111122,1111122,1111122' 
NDBC,ioos:station:NOAA.NDBC:SRST2:1,2017-09-07T20:00:00Z,29.6830,-94.0330,9.1,5.7,30.0,6.7,'1111122,1111122,1111122' 
NDBC,ioos:station:NOAA.NDBC:SRST2:1,2017-09-07T21:00:00Z,29.6830,-94.0330,9.1,4.6,30.0,5.7,'1111122,1111122,1111122' 
NDBC,ioos:station:NOAA.NDBC:SRST2:1,2017-09-07T22:00:00Z,29.6830,-94.0330,9.1,5.1,30.0,6.2,'1111122,1111122,1111122' 
NDBC,ioos:station:NOAA.NDBC:SRST2:1,2017-09-07T23:00:00Z,29.6830,-94.0330,9.1,3.6,40.0,4.1,'1111122,1111122,1111122' 
NDBC,ioos:station:NOAA.NDBC:SRST2:1,2017-09-08T00:00:00Z,29.6830,-94.0330,9.1,2.1,40.0,2.6,'1111122,1111122,1111122' 
NDBC,ioos:station:NOAA.NDBC:SRST2:1,2017-09-08T01:00:00Z,29.6830,-94.0330,9.1,2.1,70.0,2.6,'1111122,1111122,1111122' 
NDBC,ioos:station:NOAA.NDBC:SRST2:1,2017-09-08T02:00:00Z,29.6830,-94.0330,9.1,3.1,70.0,3.1,'1111122,1111122,1111122' 
NDBC,ioos:station:NOAA.NDBC:SRST2:1,2017-09-08T03:00:00Z,29.6830,-94.0330,9.1,3.1,70.0,3.6,'1111122,1111122,1111122' 
NDBC,ioos:station:NOAA.NDBC:SRST2:1,2017-09-08T04:00:00Z,29.6830,-94.0330,9.1,3.6,60.0,5.7,'1111122,1111122,1111122' 
NDBC,ioos:station:NOAA.NDBC:SRST2:1,2017-09-08T05:00:00Z,29.6830,-94.0330,9.1,4.6,50.0,6.2,'1111122,1111122,1111122' 
NDBC,ioos:station:NOAA.NDBC:SRST2:1,2017-09-08T06:00:00Z,29.6830,-94.0330,9.1,3.6,80.0,4.6,'1111122,1111122,1111122' 
NDBC,ioos:station:NOAA.NDBC:SRST2:1,2017-09-08T07:00:00Z,29.6830,-94.0330,9.1,5.1,60.0,6.2,'1111122,1111122,1111122' 
NDBC,ioos:station:NOAA.NDBC:SRST2:1,2017-09-08T08:00:00Z,29.6830,-94.0330,9.1,5.1,70.0,6.2,'1111122,1111122,1111122' 
NDBC,ioos:station:NOAA.NDBC:SRST2:1,2017-09-08T09:00:00Z,29.6830,-94.0330,9.1,4.6,50.0,6.2,'1111122,1111122,1111122' 
NDBC,ioos:station:NOAA.NDBC:SRST2:1,2017-09-08T10:00:00Z,29.6830,-94.0330,9.1,4.1,70.0,6.2,'1111122,1111122,1111122' 
NDBC,ioos:station:NOAA.NDBC:SRST2:1,2017-09-08T11:00:00Z,29.6830,-94.0330,9.1,4.1,60.0,5.1,'1111122,1111122,1111122' 
NDBC,ioos:station:NOAA.NDBC:SRST2:1,2017-09-08T12:00:00Z,29.6830,-94.0330,9.1,4.6,60.0,6.2,'1111122,1111122,1111122' 
NDBC,ioos:station:NOAA.NDBC:SRST2:1,2017-09-08T13:00:00Z,29.6830,-94.0330,9.1,5.1,60.0,6.2,'1111122,1111122,1111122' 
NDBC,ioos:station:NOAA.NDBC:SRST2:1,2017-09-08T14:00:00Z,29.6830,-94.0330,9.1,5.1,50.0,6.2,'1111122,1111122,1111122' 
NDBC,ioos:station:NOAA.NDBC:SRST2:1,2017-09-08T15:00:00Z,29.6830,-94.0330,9.1,4.6,40.0,5.7,'1111122,1111122,1111122' 
NDBC,ioos:station:NOAA.NDBC:SRST2:1,2017-09-08T16:00:00Z,29.6830,-94.0330,9.1,5.1,50.0,5.7,'1111122,1111122,1111122' 
NDBC,ioos:station:NOAA.NDBC:SRST2:1,2017-09-08T17:00:00Z,29.6830,-94.0330,9.1,5.7,40.0,6.7,'1111122,1111122,1111122' 
NDBC,ioos:station:NOAA.NDBC:SRST2:1,2017-09-08T18:00:00Z,29.6830,-94.0330,9.1,5.7,50.0,6.7,'1111122,1111122,1111122' 
NDBC,ioos:station:NOAA.NDBC:SRST2:1,2017-09-08T19:00:00Z,29.6830,-94.0330,9.1,5.7,30.0,6.7,'1111122,1111122,1111122' 
NDBC,ioos:station:NOAA.NDBC:SRST2:1,2017-09-08T20:00:00Z,29.6830,-94.0330,9.1,5.1,60.0,6.2,'1111122,1111122,1111122' 
NDBC,ioos:station:NOAA.NDBC:SRST2:1,2017-09-08T21:00:00Z,29.6830,-94.0330,9.1,6.7,50.0,7.7,'1111122,1111122,1111122' 
NDBC,ioos:station:NOAA.NDBC:SRST2:1,2017-09-08T22:00:00Z,29.6830,-94.0330,9.1,6.7,50.0,8.2,'1111122,1111122,1111122' 
NDBC,ioos:station:NOAA.NDBC:SRST2:1,2017-09-08T23:00:00Z,29.6830,-94.0330,9.1,4.6,50.0,6.2,'1111122,1111122,1111122' 
NDBC,ioos:station:NOAA.NDBC:SRST2:1,2017-09-09T00:00:00Z,29.6830,-94.0330,9.1,3.6,60.0,4.6,'1111122,1111122,1111122' 
NDBC,ioos:station:NOAA.NDBC:SRST2:1,2017-09-09T01:00:00Z,29.6830,-94.0330,9.1,2.6,50.0,3.1,'1111122,1111122,1111122' 
NDBC,ioos:station:NOAA.NDBC:SRST2:1,2017-09-09T02:00:00Z,29.6830,-94.0330,9.1,3.6,40.0,4.6,'1111122,1111122,1111122' 
NDBC,ioos:station:NOAA.NDBC:SRST2:1,2017-09-09T03:00:00Z,29.6830,-94.0330,9.1,3.6,70.0,5.7,'1111122,1111122,1111122' 
NDBC,ioos:station:NOAA.NDBC:SRST2:1,2017-09-09T04:00:00Z,29.6830,-94.0330,9.1,3.1,70.0,3.6,'1111122,1111122,1111122' 
NDBC,ioos:station:NOAA.NDBC:SRST2:1,2017-09-09T05:00:00Z,29.6830,-94.0330,9.1,3.6,50.0,4.1,'1111122,1111122,1111122' 
NDBC,ioos:station:NOAA.NDBC:SRST2:1,2017-09-09T06:00:00Z,29.6830,-94.0330,9.1,3.6,50.0,4.6,'1111122,1111122,1111122' 
NDBC,ioos:station:NOAA.NDBC:SRST2:1,2017-09-09T07:00:00Z,29.6830,-94.0330,9.1,4.1,50.0,4.6,'1111122,1111122,1111122' 
NDBC,ioos:station:NOAA.NDBC:SRST2:1,2017-09-09T08:00:00Z,29.6830,-94.0330,9.1,3.6,40.0,4.6,'1111122,1111122,1111122' 
NDBC,ioos:station:NOAA.NDBC:SRST2:1,2017-09-09T09:00:00Z,29.6830,-94.0330,9.1,4.6,50.0,5.7,'1111122,1111122,1111122' 
NDBC,ioos:station:NOAA.NDBC:SRST2:1,2017-09-09T10:00:00Z,29.6830,-94.0330,9.1,4.1,30.0,5.1,'1111122,1111122,1111122' 
NDBC,ioos:station:NOAA.NDBC:SRST2:1,2017-09-09T11:00:00Z,29.6830,-94.0330,9.1,4.1,20.0,4.6,'1111122,1111122,1111122' 
NDBC,ioos:station:NOAA.NDBC:SRST2:1,2017-09-09T12:00:00Z,29.6830,-94.0330,9.1,3.6,20.0,4.1,'1111122,1111122,1111122' 
NDBC,ioos:station:NOAA.NDBC:SRST2:1,2017-09-09T13:00:00Z,29.6830,-94.0330,9.1,4.1,20.0,4.6,'1111122,1111122,1111122' 
NDBC,ioos:station:NOAA.NDBC:SRST2:1,2017-09-09T14:00:00Z,29.6830,-94.0330,9.1,5.1,40.0,6.7,'1111122,1111122,1111122' 
NDBC,ioos:station:NOAA.NDBC:SRST2:1,2017-09-09T15:00:00Z,29.6830,-94.0330,9.1,5.1,40.0,6.7,'1111122,1111122,1111122' 
NDBC,ioos:station:NOAA.NDBC:SRST2:1,2017-09-09T16:00:00Z,29.6830,-94.0330,9.1,4.1,30.0,5.1,'1111122,1111122,1111122' 
NDBC,ioos:station:NOAA.NDBC:SRST2:1,2017-09-09T17:00:00Z,29.6830,-94.0330,9.1,4.6,40.0,6.2,'1111122,1111122,1111122' 
NDBC,ioos:station:NOAA.NDBC:SRST2:1,2017-09-09T18:00:00Z,29.6830,-94.0330,9.1,4.6,40.0,5.7,'1111122,1111122,1111122' 
NDBC,ioos:station:NOAA.NDBC:SRST2:1,2017-09-09T19:00:00Z,29.6830,-94.0330,9.1,5.7,50.0,6.7,'1111122,1111122,1111122' 
NDBC,ioos:station:NOAA.NDBC:SRST2:1,2017-09-09T20:00:00Z,29.6830,-94.0330,9.1,7.7,50.0,9.3,'1111122,1111122,1111122' 
NDBC,ioos:station:NOAA.NDBC:SRST2:1,2017-09-09T21:00:00Z,29.6830,-94.0330,9.1,6.2,60.0,8.2,'1111122,1111122,1111122' 
NDBC,ioos:station:NOAA.NDBC:SRST2:1,2017-09-09T22:00:00Z,29.6830,-94.0330,9.1,6.2,40.0,7.2,'1111122,1111122,1111122' 
NDBC,ioos:station:NOAA.NDBC:SRST2:1,2017-09-09T23:00:00Z,29.6830,-94.0330,9.1,5.7,40.0,7.2,'1111122,1111122,1111122' 
NDBC,ioos:station:NOAA.NDBC:SRST2:1,2017-09-10T00:00:00Z,29.6830,-94.0330,9.1,5.7,40.0,6.2,'1111122,1111122,1111122' 
NDBC,ioos:station:NOAA.NDBC:SRST2:1,2017-09-10T01:00:00Z,29.6830,-94.0330,9.1,4.1,20.0,5.1,'1111122,1111122,1111122' 
NDBC,ioos:station:NOAA.NDBC:SRST2:1,2017-09-10T02:00:00Z,29.6830,-94.0330,9.1,4.1,20.0,5.1,'1111122,1111122,1111122' 
NDBC,ioos:station:NOAA.NDBC:SRST2:1,2017-09-10T03:00:00Z,29.6830,-94.0330,9.1,4.1,20.0,5.7,'1111122,1111122,1111122' 
NDBC,ioos:station:NOAA.NDBC:SRST2:1,2017-09-10T04:00:00Z,29.6830,-94.0330,9.1,4.1,20.0,5.7,'1111122,1111122,1111122' 
NDBC,ioos:station:NOAA.NDBC:SRST2:1,2017-09-10T05:00:00Z,29.6830,-94.0330,9.1,5.1,20.0,6.2,'1111122,1111122,1111122' 
NDBC,ioos:station:NOAA.NDBC:SRST2:1,2017-09-10T06:00:00Z,29.6830,-94.0330,9.1,5.1,30.0,5.7,'1111122,1111122,1111122' 
NDBC,ioos:station:NOAA.NDBC:SRST2:1,2017-09-10T07:00:00Z,29.6830,-94.0330,9.1,5.1,30.0,6.2,'1111122,1111122,1111122' 
NDBC,ioos:station:NOAA.NDBC:SRST2:1,2017-09-10T08:00:00Z,29.6830,-94.0330,9.1,4.6,40.0,5.7,'1111122,1111122,1111122' 
NDBC,ioos:station:NOAA.NDBC:SRST2:1,2017-09-10T09:00:00Z,29.6830,-94.0330,9.1,5.1,30.0,6.2,'1111122,1111122,1111122' 
NDBC,ioos:station:NOAA.NDBC:SRST2:1,2017-09-10T10:00:00Z,29.6830,-94.0330,9.1,4.6,30.0,6.2,'1111122,1111122,1111122' 
NDBC,ioos:station:NOAA.NDBC:SRST2:1,2017-09-10T11:00:00Z,29.6830,-94.0330,9.1,4.1,20.0,5.1,'1111122,1111122,1111122' 
NDBC,ioos:station:NOAA.NDBC:SRST2:1,2017-09-10T12:00:00Z,29.6830,-94.0330,9.1,4.6,20.0,5.1,'1111122,1111122,1111122' 
NDBC,ioos:station:NOAA.NDBC:SRST2:1,2017-09-10T13:00:00Z,29.6830,-94.0330,9.1,5.1,20.0,6.7,'1111122,1111122,1111122' 
NDBC,ioos:station:NOAA.NDBC:SRST2:1,2017-09-10T14:00:00Z,29.6830,-94.0330,9.1,6.2,30.0,7.2,'1111122,1111122,1111122' 
NDBC,ioos:station:NOAA.NDBC:SRST2:1,2017-09-10T15:00:00Z,29.6830,-94.0330,9.1,6.7,30.0,8.2,'1111122,1111122,1111122' 
NDBC,ioos:station:NOAA.NDBC:SRST2:1,2017-09-10T16:00:00Z,29.6830,-94.0330,9.1,5.7,40.0,6.7,'1111122,1111122,1111122' 
NDBC,ioos:station:NOAA.NDBC:SRST2:1,2017-09-10T17:00:00Z,29.6830,-94.0330,9.1,8.2,30.0,9.3,'1111122,1111122,1111122' 
NDBC,ioos:station:NOAA.NDBC:SRST2:1,2017-09-10T18:00:00Z,29.6830,-94.0330,9.1,7.2,30.0,8.8,'1111122,1111122,1111122' 
NDBC,ioos:station:NOAA.NDBC:SRST2:1,2017-09-10T19:00:00Z,29.6830,-94.0330,9.1,6.2,20.0,7.2,'1111122,1111122,1111122' 
NDBC,ioos:station:NOAA.NDBC:SRST2:1,2017-09-10T20:00:00Z,29.6830,-94.0330,9.1,6.7,40.0,9.3,'1111122,1111122,1111122' 
NDBC,ioos:station:NOAA.NDBC:SRST2:1,2017-09-10T21:00:00Z,29.6830,-94.0330,9.1,6.2,50.0,7.7,'1111122,1111122,1111122' 
NDBC,ioos:station:NOAA.NDBC:SRST2:1,2017-09-10T22:00:00Z,29.6830,-94.0330,9.1,6.2,50.0,7.2,'1111122,1111122,1111122' 
NDBC,ioos:station:NOAA.NDBC:SRST2:1,2017-09-10T23:00:00Z,29.6830,-94.0330,9.1,5.1,30.0,6.2,'1111122,1111122,1111122' 
NDBC,ioos:station:NOAA.NDBC:SRST2:1,2017-09-11T00:00:00Z,29.6830,-94.0330,9.1,6.2,30.0,6.7,'1111122,1111122,1111122' 
NDBC,ioos:station:NOAA.NDBC:SRST2:1,2017-09-11T01:00:00Z,29.6830,-94.0330,9.1,4.6,360.0,5.1,'1111122,1111122,1111122' 
NDBC,ioos:station:NOAA.NDBC:SRST2:1,2017-09-11T02:00:00Z,29.6830,-94.0330,9.1,3.6,360.0,4.1,'1111122,1111122,1111122' 